Regional Weather Roundup
Issued by NWS

Home | Current Version | Previous Version | Graphics & Text | Print | Product List | Glossary Off
Versions: 1 2 3 4 5 6 7 8 9 10 11 12 13 14 15 16 17 18 19 20 21 22 23 24 25 26 27 28 29 30 31 32 33 34 35 36 37 38 39 40 41 42 43 44 45 46 47 48 49 50

000
ASUS43 KTOP 222308
RWRKS

WEATHER ROUNDUP FOR KANSAS
NATIONAL WEATHER SERVICE GOODLAND KS
600 PM CDT WED OCT 22 2014

NOTE:  "FAIR" INDICATES FEW OR NO CLOUDS BELOW 12,000 FEET WITH NO
SIGNIFICANT WEATHER AND/OR OBSTRUCTIONS TO VISIBILITY.

KSZ001>006-013>018-027>032-041>047-230000-
NORTHWEST KANSAS

CITY           SKY/WX    TMP DP  RH WIND       PRES   REMARKS
GOODLAND       CLEAR     71  45  39 NE7       30.03S
HAYS           CLOUDY    66  55  68 S21G26    30.00R
HILL CITY      CLOUDY    70  58  65 N12       29.98R
RUSSELL        CLOUDY    66  56  70 S14       29.99S
$$

KSZ061>065-074>080-084>089-230000-
SOUTHWEST KANSAS

CITY           SKY/WX    TMP DP  RH WIND       PRES   REMARKS
DODGE CITY     CLOUDY    66  55  67 S20G29    30.02S
ELKHART          N/A     73  51  46 SW3         N/A
GARDEN CITY    PTCLDY    72  55  55 S18       29.97F
GREAT BEND     CLOUDY    64  55  72 S16       30.02S
LIBERAL        SUNNY     73  55  53 S16       30.01S
PRATT          DRIZZLE   59  55  88 S10       30.06R
$$

KSZ066>073-081>083-090>101-230000-
SOUTHEAST KANSAS

CITY           SKY/WX    TMP DP  RH WIND       PRES   REMARKS
CHANUTE        CLEAR     73  58  59 S8        30.08F
COFFEYVILLE    CLEAR     74  57  55 S8        30.08S
HUTCHINSON     CLOUDY    74  51  44 S14       30.03R
MEDICINE LODGE   N/A     64  58  80 S9        30.04F
NEWTON         CLOUDY    72  52  49 S14       30.06S
PARSONS        CLEAR     75  58  55 S3        30.09F
WICHITA INTL   CLOUDY    75  52  44 S14       30.04S
WICHITA JABRA  MOCLDY    74  53  48 S14G23    30.04S
WICHITA MCCONL MOCLDY    74  52  47 S13       30.05S
WINFIELD       PTCLDY    73  58  59 S12       30.07R
$$

KSZ007>012-019>026-033>040-048>060-102>105-230000-
NORTHEAST KANSAS

CITY           SKY/WX    TMP DP  RH WIND       PRES   REMARKS
CONCORDIA      LGT RAIN  66  57  72 S20G32    30.01R
EMPORIA        LGT RAIN  72  55  55 S12       30.06S
LAWRENCE       CLEAR     71  56  58 SE10      30.08R
MANHATTAN      PTCLDY    76  55  48 S12       30.02R
MARYSVILLE     PTCLDY    73  54  49 S15       30.00S
OLATHE IND     CLEAR     70  57  63 SE12      30.10S
OLATHE EXE     CLEAR     69  57  65 SE9       30.09S
SALINA         CLOUDY    71  54  54 S8        30.01S
TOPEKA BILLARD PTCLDY    74  60  61 SE10      30.05S
TOPEKA FORBES  CLEAR     74  55  51 S9        30.05S
$$



USA.gov is the U.S. government's official web portal to all federal, state and local government web resources and services.